Tracking 27122 objects as of 26-Mar-2023
HD Live streaming from Space Station
objects crossing your sky now

CZ-3C DEB

Track CZ-3C DEB now!


NORAD ID: 40818
Int'l Code: 2010-057AK
Perigee: 687.3 km
Apogee: 35,669.5 km
Inclination: 20.0 °
Period: 638.0 minutes
Semi major axis: 24549 km
RCS: Unknown
Launch date: October 31, 2010
Source: People's Republic of China (PRC)
Launch site: Xichang Space Center, China (XSC)

Note: This is SATELLITE DEBRIS
Your satellite tracking list
Your tracking list is empty




NASA's NSSDC Master Catalog

Two Line Element Set (TLE):
1 40818U 10057AK  23083.75175577  .00000008  00000-0  66588-3 0  9998
2 40818  19.9801 144.8837 7124871 144.4949 295.5849  2.25705696 66311
Source of the keplerian elements: AFSPC